K6OUA-11 Weather Reports


time (UTC)temp
C
wind
direction
speed
KPH
gust
KPH
rain 1hr
cm
rain 24hr
cm
rain mn
cm
humidity
%
barometer
mb
20211128104839 10 135 0.0 0.0 0.00 0.00 0.00 28 1014.3
20211128104237 10 135 0.0 0.0 0.00 0.00 0.00 28 1014.3
20211128103334 10 135 0.0 0.0 0.00 0.00 0.00 28 1014.4
20211128103033 10 135 0.0 0.0 0.00 0.00 0.00 27 1014.4
20211128102731 10 135 0.0 0.0 0.00 0.00 0.00 27 1014.3
20211128102431 10 135 0.0 0.0 0.00 0.00 0.00 27 1014.2
20211128101527 11 90 0.0 0.0 0.00 0.00 0.00 27 1014.1
20211128100925 11 112 0.0 0.0 0.00 0.00 0.00 27 1014.1
20211128100624 11 90 0.0 0.0 0.00 0.00 0.00 27 1014.1
20211128100322 11 90 0.0 0.0 0.00 0.00 0.00 27 1014.3
20211128095721 11 96 0.0 0.0 0.00 0.00 0.00 27 1014.1
20211128095117 11 92 0.0 0.0 0.00 0.00 0.00 28 1014.0
20211128094817 11 135 0.0 0.0 0.00 0.00 0.00 28 1014.1
20211128094516 11 99 0.0 3.2 0.00 0.00 0.00 28 1014.0
20211128094215 11 90 8.0 12.9 0.00 0.00 0.00 28 1014.3
20211128093914 10 90 4.8 12.9 0.00 0.00 0.00 29 1014.1
20211128093010 10 90 9.7 11.3 0.00 0.00 0.00 30 1014.2
20211128092402 10 90 8.0 11.3 0.00 0.00 0.00 30 1014.2
20211128091800 10 90 9.7 11.3 0.00 0.00 0.00 32 1014.1
20211128091500 10 90 9.7 9.7 0.00 0.00 0.00 32 1014.1
20211128090858 10 90 4.8 6.4 0.00 0.00 0.00 31 1014.1
20211128090557 10 90 6.4 6.4 0.00 0.00 0.00 31 1014.1
20211128090256 10 90 3.2 4.8 0.00 0.00 0.00 31 1014.0
20211128085653 10 90 4.8 8.0 0.00 0.00 0.00 30 1014.1
20211128085352 11 90 6.4 6.4 0.00 0.00 0.00 30 1014.0
20211128084749 11 90 3.2 4.8 0.00 0.00 0.00 28 1013.8
20211128083546 11 90 4.8 9.7 0.00 0.00 0.00 27 1014.0
20211128083245 11 90 4.8 9.7 0.00 0.00 0.00 27 1013.9
20211128082641 11 85 9.7 11.3 0.00 0.00 0.00 28 1014.0
20211128082040 11 87 4.8 9.7 0.00 0.00 0.00 29 1013.9
20211128081739 11 90 4.8 9.7 0.00 0.00 0.00 30 1013.9
20211128081438 11 67 6.4 8.0 0.00 0.00 0.00 30 1014.0
20211128080836 11 67 8.0 9.7 0.00 0.00 0.00 30 1014.0
20211128080232 11 90 0.0 0.0 0.00 0.00 0.00 30 1014.0
20211128075932 11 90 0.0 0.0 0.00 0.00 0.00 30 1013.9
20211128075631 11 90 0.0 0.0 0.00 0.00 0.00 31 1014.0
20211128075330 11 90 0.0 0.0 0.00 0.00 0.00 31 1014.1
20211128074728 11 90 0.0 0.0 0.00 0.00 0.00 32 1014.1
20211128074126 11 112 0.0 0.0 0.00 0.00 0.00 32 1014.3
20211128073823 11 90 0.0 0.0 0.00 0.00 0.00 32 1014.2
20211128073524 11 90 0.0 0.0 0.00 0.00 0.00 32 1014.2
20211128073221 11 90 0.0 0.0 0.00 0.00 0.00 32 1014.2
20211128072921 11 90 0.0 0.0 0.00 0.00 0.00 32 1014.2
20211128072620 11 90 0.0 0.0 0.00 0.00 0.00 32 1014.2
20211128072319 11 90 0.0 0.0 0.00 0.00 0.00 34 1014.1
20211128072017 11 90 0.0 0.0 0.00 0.00 0.00 34 1014.2
20211128071716 11 90 0.0 0.0 0.00 0.00 0.00 34 1014.0
20211128070812 11 90 0.0 0.0 0.00 0.00 0.00 34 1014.1
20211128070513 10 90 0.0 0.0 0.00 0.00 0.00 34 1014.1
20211128070213 10 90 0.0 0.0 0.00 0.00 0.00 34 1014.3
20211128065910 10 90 0.0 0.0 0.00 0.00 0.00 34 1014.3
20211128065608 10 92 0.0 0.0 0.00 0.00 0.00 33 1014.3
20211128065007 10 114 0.0 0.0 0.00 0.00 0.00 31 1014.3
20211128064706 10 135 0.0 0.0 0.00 0.00 0.00 32 1014.3
20211128064403 10 135 0.0 0.0 0.00 0.00 0.00 32 1014.2
20211128063501 10 135 0.0 0.0 0.00 0.00 0.00 34 1014.3
20211128063159 10 135 0.0 0.0 0.00 0.00 0.00 34 1014.3
20211128062859 10 135 0.0 0.0 0.00 0.00 0.00 34 1014.2
20211128062257 10 135 0.0 0.0 0.00 0.00 0.00 34 1014.2
20211128061955 10 135 0.0 0.0 0.00 0.00 0.00 33 1014.1
20211128061655 11 135 0.0 0.0 0.00 0.00 0.00 34 1014.2
20211128061353 11 135 0.0 0.0 0.00 0.00 0.00 34 1014.1
20211128061051 11 135 0.0 0.0 0.00 0.00 0.00 34 1014.1
20211128060751 11 135 0.0 0.0 0.00 0.00 0.00 33 1014.0
20211128060148 11 90 0.0 0.0 0.00 0.00 0.00 33 1014.0
20211128055547 11 112 0.0 1.6 0.00 0.00 0.00 34 1014.0
20211128054945 11 112 0.0 0.0 0.00 0.00 0.00 34 1013.9
20211128054643 11 90 0.0 0.0 0.00 0.00 0.00 34 1013.8
20211128054343 11 90 0.0 0.0 0.00 0.00 0.00 34 1013.9
20211128054042 11 90 0.0 0.0 0.00 0.00 0.00 34 1013.8
20211128053439 11 90 0.0 0.0 0.00 0.00 0.00 34 1013.9
20211128053138 11 90 0.0 0.0 0.00 0.00 0.00 34 1013.8
20211128052837 12 90 0.0 0.0 0.00 0.00 0.00 34 1013.9
20211128052536 12 90 0.0 0.0 0.00 0.00 0.00 34 1014.0
20211128052233 12 90 0.0 0.0 0.00 0.00 0.00 34 1013.9
20211128051933 12 90 0.0 0.0 0.00 0.00 0.00 34 1013.9
20211128051632 12 90 0.0 0.0 0.00 0.00 0.00 34 1014.0
20211128050729 12 90 0.0 0.0 0.00 0.00 0.00 34 1013.9
20211128050428 12 90 0.0 0.0 0.00 0.00 0.00 33 1014.0
20211128050127 12 90 0.0 0.0 0.00 0.00 0.00 34 1014.0
20211128045826 12 90 0.0 0.0 0.00 0.00 0.00 34 1014.0
20211128045525 12 90 0.0 0.0 0.00 0.00 0.00 34 1013.9
20211128045224 12 90 0.0 0.0 0.00 0.00 0.00 34 1013.9
20211128044922 12 90 0.0 0.0 0.00 0.00 0.00 34 1013.7
20211128044622 12 90 0.0 0.0 0.00 0.00 0.00 34 1013.7
20211128044320 12 90 0.0 0.0 0.00 0.00 0.00 35 1013.7
20211128044020 12 90 0.0 0.0 0.00 0.00 0.00 35 1013.7
20211128043111 12 90 0.0 0.0 0.00 0.00 0.00 34 1013.8
20211128042809 12 90 0.0 0.0 0.00 0.00 0.00 34 1013.8
20211128041905 12 90 0.0 0.0 0.00 0.00 0.00 35 1013.7
20211128041606 13 90 0.0 0.0 0.00 0.00 0.00 35 1013.5
20211128041305 13 90 0.0 0.0 0.00 0.00 0.00 35 1013.5
20211128040702 13 90 0.0 0.0 0.00 0.00 0.00 35 1013.5
20211128040100 13 90 0.0 0.0 0.00 0.00 0.00 36 1013.5
20211128035157 13 90 0.0 0.0 0.00 0.00 0.00 37 1013.5
20211128034856 12 90 0.0 0.0 0.00 0.00 0.00 38 1013.5
20211128034553 12 90 0.0 0.0 0.00 0.00 0.00 38 1013.6
20211128034252 12 90 0.0 0.0 0.00 0.00 0.00 38 1013.6
20211128033952 12 90 0.0 0.0 0.00 0.00 0.00 39 1013.6
20211128033048 12 90 0.0 0.0 0.00 0.00 0.00 40 1013.4
20211128032749 12 90 0.0 0.0 0.00 0.00 0.00 40 1013.5
20211128032146 12 90 0.0 0.0 0.00 0.00 0.00 40 1013.6
20211128031845 12 90 0.0 0.0 0.00 0.00 0.00 39 1013.7
20211128031544 12 90 0.0 0.0 0.00 0.00 0.00 40 1013.7
20211128031242 12 90 0.0 0.0 0.00 0.00 0.00 40 1013.4
20211128030941 12 135 0.0 0.0 0.00 0.00 0.00 40 1013.5
20211128030640 12 135 0.0 0.0 0.00 0.00 0.00 41 1013.5
20211128030038 12 135 0.0 0.0 0.00 0.00 0.00 41 1013.4
20211128025737 13 135 0.0 0.0 0.00 0.00 0.00 40 1013.3
20211128025436 13 112 0.0 0.0 0.00 0.00 0.00 40 1013.3
20211128025134 13 180 0.0 0.0 0.00 0.00 0.00 40 1013.4
20211128024833 13 180 0.0 0.0 0.00 0.00 0.00 40 1013.3
20211128024531 13 180 0.0 0.0 0.00 0.00 0.00 40 1013.2
20211128024231 13 180 0.0 0.0 0.00 0.00 0.00 40 1013.2
20211128023629 13 180 0.0 0.0 0.00 0.00 0.00 41 1013.2
20211128023328 13 180 0.0 0.0 0.00 0.00 0.00 41 1013.2
20211128023027 12 180 0.0 0.0 0.00 0.00 0.00 40 1013.1
20211128022726 12 180 0.0 0.0 0.00 0.00 0.00 40 1013.2
20211128022424 12 180 0.0 0.0 0.00 0.00 0.00 40 1013.1
20211128022124 12 180 0.0 0.0 0.00 0.00 0.00 40 1013.1
20211128021823 13 180 0.0 0.0 0.00 0.00 0.00 40 1013.1
20211128021520 13 180 0.0 0.0 0.00 0.00 0.00 40 1013.1
20211128021220 13 180 0.0 0.0 0.00 0.00 0.00 40 1013.0
20211128020919 13 180 0.0 0.0 0.00 0.00 0.00 40 1013.0
20211128020617 13 180 0.0 0.0 0.00 0.00 0.00 39 1013.0
20211128015713 13 180 0.0 0.0 0.00 0.00 0.00 38 1012.9
20211128015412 13 180 0.0 0.0 0.00 0.00 0.00 38 1012.9
20211128015112 13 180 0.0 0.0 0.00 0.00 0.00 37 1012.9
20211128014810 13 180 0.0 0.0 0.00 0.00 0.00 37 1012.8
20211128014209 14 180 0.0 0.0 0.00 0.00 0.00 37 1012.9
20211128013907 14 180 0.0 0.0 0.00 0.00 0.00 36 1012.6
20211128013607 14 180 0.0 0.0 0.00 0.00 0.00 36 1012.8
20211128012704 15 180 0.0 0.0 0.00 0.00 0.00 35 1012.7
20211128012101 15 180 0.0 0.0 0.00 0.00 0.00 35 1012.8
20211128011459 15 180 0.0 0.0 0.00 0.00 0.00 33 1012.8
20211128011158 16 180 0.0 0.0 0.00 0.00 0.00 33 1012.7
20211128010856 16 180 0.0 0.0 0.00 0.00 0.00 32 1012.5
20211128010556 16 180 0.0 0.0 0.00 0.00 0.00 32 1012.6
20211128005352 17 180 0.0 0.0 0.00 0.00 0.00 30 1012.6
20211128005050 17 180 0.0 0.0 0.00 0.00 0.00 30 1012.3
20211128003843 18 180 0.0 3.2 0.00 0.00 0.00 28 1012.3
20211128003237 18 180 1.6 3.2 0.00 0.00 0.00 28 1012.1
20211128002637 19 180 1.6 3.2 0.00 0.00 0.00 27 1011.9
20211128002034 20 180 3.2 4.8 0.00 0.00 0.00 25 1012.1
20211128001733 20 180 3.2 4.8 0.00 0.00 0.00 25 1012.3
20211128001432 20 180 3.2 4.8 0.00 0.00 0.00 24 1012.2
20211127235926 21 180 6.4 6.4 0.00 0.00 0.00 22 1011.7
20211127235625 21 180 4.8 6.4 0.00 0.00 0.00 22 1011.7
20211127235324 21 180 4.8 6.4 0.00 0.00 0.00 21 1011.6
20211127234722 21 180 4.8 6.4 0.00 0.00 0.00 21 1011.6
20211127233819 22 180 4.8 8.0 0.00 0.00 0.00 18 1011.5
20211127233518 22 180 6.4 8.0 0.00 0.00 0.00 18 1011.7
20211127233217 22 180 6.4 6.4 0.00 0.00 0.00 17 1011.7
20211127232916 22 180 6.4 8.0 0.00 0.00 0.00 17 1011.5
20211127232615 22 180 8.0 8.0 0.00 0.00 0.00 15 1011.5
20211127232313 22 180 4.8 8.0 0.00 0.00 0.00 15 1011.5
20211127230803 23 180 4.8 6.4 0.00 0.00 0.00 13 1011.3
20211127230501 24 180 4.8 8.0 0.00 0.00 0.00 13 1011.2
20211127230200 24 180 4.8 8.0 0.00 0.00 0.00 13 1011.1
20211127225558 25 180 6.4 8.0 0.00 0.00 0.00 13 1011.2
20211127225258 25 180 6.4 8.0 0.00 0.00 0.00 13 1011.3
20211127224956 25 157 6.4 8.0 0.00 0.00 0.00 13 1011.3
20211127222848 26 337 6.4 8.0 0.00 0.00 0.00 13 1011.1
20211127222547 26 202 8.0 9.7 0.00 0.00 0.00 13 1011.1
20211127221945 26 202 6.4 9.7 0.00 0.00 0.00 13 1011.0
20211127221644 26 337 6.4 9.7 0.00 0.00 0.00 13 1011.0
20211127221343 26 337 8.0 8.0 0.00 0.00 0.00 13 1011.0
20211127220741 26 337 0.0 9.7 0.00 0.00 0.00 12 1010.9
20211127220138 26 337 6.4 9.7 0.00 0.00 0.00 13 1010.9
20211127215536 26 337 8.0 14.5 0.00 0.00 0.00 12 1011.0
20211127214934 26 337 4.8 9.7 0.00 0.00 0.00 12 1011.0
20211127214332 26 337 8.0 9.7 0.00 0.00 0.00 12 1011.0
20211127213729 26 337 9.7 11.3 0.00 0.00 0.00 12 1011.0
20211127213428 26 225 6.4 12.9 0.00 0.00 0.00 11 1010.9
20211127212224 26 225 9.7 12.9 0.00 0.00 0.00 11 1011.0
20211127211923 26 225 9.7 12.9 0.00 0.00 0.00 11 1011.1
20211127211622 26 225 8.0 11.3 0.00 0.00 0.00 11 1011.1
20211127211020 26 225 8.0 12.9 0.00 0.00 0.00 10 1011.2
20211127210719 26 225 9.7 11.3 0.00 0.00 0.00 10 1011.2
20211127210417 26 202 9.7 11.3 0.00 0.00 0.00 10 1011.2
20211127205213 26 180 6.4 12.9 0.00 0.00 0.00 9 1011.4
20211127204912 26 180 8.0 12.9 0.00 0.00 0.00 9 1011.6
20211127204310 26 180 14.5 16.1 0.00 0.00 0.00 9 1011.4
20211127204009 26 180 11.3 19.3 0.00 0.00 0.00 8 1011.4
20211127203708 26 180 9.7 19.3 0.00 0.00 0.00 8 1011.5
20211127203407 27 180 8.0 11.3 0.00 0.00 0.00 8 1011.5
20211127203106 27 180 8.0 11.3 0.00 0.00 0.00 8 1011.5
20211127202503 27 180 6.4 11.3 0.00 0.00 0.00 7 1011.7
20211127201901 28 180 9.7 12.9 0.00 0.00 0.00 7 1011.8
20211127201600 28 180 9.7 14.5 0.00 0.00 0.00 7 1011.7
20211127200657 30 135 9.7 9.7 0.00 0.00 0.00 5 1011.8
20211127195754 30 135 0.0 0.0 0.00 0.00 0.00 3 1012.0
20211127195452 30 135 0.0 1.6 0.00 0.00 0.00 3 1011.7
20211127195151 30 135 0.0 3.2 0.00 0.00 0.00 3 1011.7
20211127194850 30 135 0.0 6.4 0.00 0.00 0.00 3 1011.7
20211127194549 30 135 4.8 6.4 0.00 0.00 0.00 3 1012.0
20211127193945 30 135 0.0 0.0 0.00 0.00 0.00 3 1012.1
20211127193645 30 135 0.0 1.6 0.00 0.00 0.00 3 1012.0
20211127193344 30 135 0.0 1.6 0.00 0.00 0.00 3 1012.1
20211127193044 30 135 0.0 0.0 0.00 0.00 0.00 3 1012.2
20211127192140 30 135 6.4 8.0 0.00 0.00 0.00 4 1012.2
20211127191537 30 87 0.0 0.0 0.00 0.00 0.00 4 1012.3
20211127191237 30 90 0.0 1.6 0.00 0.00 0.00 3 1012.4
20211127190936 30 90 0.0 0.0 0.00 0.00 0.00 3 1012.4
20211127190635 30 90 0.0 1.6 0.00 0.00 0.00 4 1012.4
20211127190334 30 92 0.0 0.0 0.00 0.00 0.00 4 1012.3
20211127185732 30 87 1.6 9.7 0.00 0.00 0.00 4 1012.6
20211127184527 29 135 0.0 4.8 0.00 0.00 0.00 5 1012.7
20211127183926 29 135 1.6 3.2 0.00 0.00 0.00 5 1012.8
20211127183624 28 135 0.0 6.4 0.00 0.00 0.00 5 1012.9
20211127183022 28 137 0.0 6.4 0.00 0.00 0.00 5 1013.0
20211127182721 28 135 4.8 6.4 0.00 0.00 0.00 6 1013.0
20211127182419 27 135 0.0 0.0 0.00 0.00 0.00 6 1012.9
20211127182118 27 135 0.0 0.0 0.00 0.00 0.00 7 1012.9
20211127181516 26 135 0.0 1.6 0.00 0.00 0.00 7 1013.0
20211127180914 26 135 0.0 1.6 0.00 0.00 0.00 7 1013.0
20211127180612 26 135 0.0 1.6 0.00 0.00 0.00 8 1013.1
20211127180312 25 135 0.0 1.6 0.00 0.00 0.00 8 1013.0
20211127180012 25 135 1.6 1.6 0.00 0.00 0.00 8 1013.2
20211127173903 23 135 0.0 1.6 0.00 0.00 0.00 10 1012.8
20211127173300 23 135 0.0 1.6 0.00 0.00 0.00 10 1012.8
20211127172658 23 135 0.0 1.6 0.00 0.00 0.00 11 1012.7
20211127172056 22 135 0.0 1.6 0.00 0.00 0.00 11 1012.7
20211127171756 22 135 1.6 1.6 0.00 0.00 0.00 11 1012.7
20211127170852 21 135 0.0 0.0 0.00 0.00 0.00 11 1012.6
20211127170250 20 135 0.0 9.7 0.00 0.00 0.00 10 1012.7
20211127165948 20 130 0.0 12.9 0.00 0.00 0.00 10 1012.7
20211127165647 19 90 12.9 12.9 0.00 0.00 0.00 10 1012.4
20211127165045 18 90 11.3 12.9 0.00 0.00 0.00 11 1012.4
20211127164744 18 90 8.0 12.9 0.00 0.00 0.00 12 1012.5
20211127164142 18 112 9.7 11.3 0.00 0.00 0.00 12 1012.5
20211127163840 18 112 9.7 11.3 0.00 0.00 0.00 12 1012.4
20211127163540 17 90 8.0 8.0 0.00 0.00 0.00 12 1012.4
20211127162636 17 90 6.4 8.0 0.00 0.00 0.00 12 1012.6
20211127162336 17 135 0.0 0.0 0.00 0.00 0.00 11 1012.4
20211127162034 17 90 0.0 0.0 0.00 0.00 0.00 11 1012.4
20211127161733 16 112 0.0 0.0 0.00 0.00 0.00 11 1012.2
20211127160527 15 132 0.0 0.0 0.00 0.00 0.00 11 1012.3
20211127160228 15 135 0.0 0.0 0.00 0.00 0.00 12 1012.3
20211127155625 14 90 0.0 0.0 0.00 0.00 0.00 13 1012.3
20211127155023 13 90 0.0 0.0 0.00 0.00 0.00 13 1012.1
20211127154421 13 90 0.0 0.0 0.00 0.00 0.00 14 1012.0
20211127154120 13 90 0.0 0.0 0.00 0.00 0.00 13 1012.0
20211127153217 13 135 0.0 0.0 0.00 0.00 0.00 13 1012.0
20211127152915 12 135 0.0 0.0 0.00 0.00 0.00 13 1012.0
20211127152614 12 90 0.0 0.0 0.00 0.00 0.00 13 1011.9
20211127152313 12 90 0.0 0.0 0.00 0.00 0.00 13 1011.9
20211127152012 12 90 0.0 0.0 0.00 0.00 0.00 13 1012.0
20211127151711 12 94 0.0 0.0 0.00 0.00 0.00 13 1012.0
20211127151410 12 135 0.0 1.6 0.00 0.00 0.00 13 1011.9
20211127151109 12 135 0.0 0.0 0.00 0.00 0.00 13 1011.9
20211127150205 12 135 0.0 1.6 0.00 0.00 0.00 12 1011.9
20211127145603 12 135 0.0 1.6 0.00 0.00 0.00 12 1011.7
20211127145301 12 135 0.0 1.6 0.00 0.00 0.00 11 1011.7
20211127144700 13 112 0.0 0.0 0.00 0.00 0.00 10 1011.6
20211127144359 13 112 0.0 0.0 0.00 0.00 0.00 10 1011.6
20211127144057 13 112 0.0 0.0 0.00 0.00 0.00 10 1011.7
20211127143756 12 112 0.0 0.0 0.00 0.00 0.00 10 1011.5
20211127143456 12 112 0.0 0.0 0.00 0.00 0.00 10 1011.4
20211127143154 12 112 0.0 1.6 0.00 0.00 0.00 10 1011.4
20211127142853 12 114 0.0 1.6 0.00 0.00 0.00 10 1011.5
20211127142251 12 112 0.0 0.0 0.00 0.00 0.00 10 1011.5
20211127141950 12 112 0.0 0.0 0.00 0.00 0.00 11 1011.4
20211127141649 12 112 0.0 1.6 0.00 0.00 0.00 11 1011.3
20211127141348 12 112 0.0 1.6 0.00 0.00 0.00 11 1011.3
20211127141045 11 135 0.0 0.0 0.00 0.00 0.00 11 1011.4
20211127140744 11 90 0.0 0.0 0.00 0.00 0.00 11 1011.4
20211127135844 12 90 0.0 0.0 0.00 0.00 0.00 11 1011.4
20211127135539 12 90 0.0 0.0 0.00 0.00 0.00 11 1011.3
20211127134639 12 90 0.0 0.0 0.00 0.00 0.00 10 1011.3
20211127134034 12 90 0.0 0.0 0.00 0.00 0.00 10 1011.2
20211127133735 12 90 0.0 0.0 0.00 0.00 0.00 10 1011.2
20211127133433 12 90 0.0 0.0 0.00 0.00 0.00 10 1011.3
20211127133131 12 90 0.0 0.0 0.00 0.00 0.00 10 1011.3
20211127132530 12 90 0.0 0.0 0.00 0.00 0.00 10 1011.2
20211127132229 12 90 0.0 0.0 0.00 0.00 0.00 10 1011.3
20211127131928 12 90 0.0 0.0 0.00 0.00 0.00 10 1011.2
20211127131627 12 90 0.0 0.0 0.00 0.00 0.00 10 1011.0
20211127131025 12 90 0.0 1.6 0.00 0.00 0.00 9 1010.9
20211127130724 12 90 3.2 9.7 0.00 0.00 0.00 9 1011.0
20211127130121 13 90 8.0 11.3 0.00 0.00 0.00 9 1010.8
20211127125820 13 90 6.4 9.7 0.00 0.00 0.00 9 1010.8
20211127125517 13 90 9.7 11.3 0.00 0.00 0.00 9 1010.8
20211127124615 14 90 8.0 12.9 0.00 0.00 0.00 8 1010.8
20211127124314 15 90 12.9 14.5 0.00 0.00 0.00 8 1010.8
20211127123712 15 112 11.3 14.5 0.00 0.00 0.00 7 1010.8
20211127122809 17 112 6.4 11.3 0.00 0.00 0.00 5 1011.0
20211127121604 17 87 11.3 16.1 0.00 0.00 0.00 4 1011.1
20211127121304 17 90 14.5 14.5 0.00 0.00 0.00 5 1011.0
20211127121002 16 135 0.0 0.0 0.00 0.00 0.00 5 1010.9
20211127120400 16 90 0.0 0.0 0.00 0.00 0.00 5 1010.9
20211127120059 16 135 0.0 0.0 0.00 0.00 0.00 5 1010.5
20211127115757 16 90 0.0 0.0 0.00 0.00 0.00 5 1010.7
20211127114553 16 67 0.0 0.0 0.00 0.00 0.00 7 1010.7
20211127114251 17 67 0.0 0.0 0.00 0.00 0.00 6 1010.6
20211127113951 17 67 0.0 0.0 0.00 0.00 0.00 6 1010.4
20211127113650 17 67 0.0 0.0 0.00 0.00 0.00 5 1010.4
20211127113048 17 51 0.0 0.0 0.00 0.00 0.00 4 1010.1
20211127112747 17 45 0.0 0.0 0.00 0.00 0.00 4 1010.3
20211127112446 17 45 0.0 0.0 0.00 0.00 0.00 4 1010.1
20211127112145 16 45 0.0 0.0 0.00 0.00 0.00 5 1010.2
20211127111844 16 45 0.0 0.0 0.00 0.00 0.00 5 1010.2
20211127111542 16 45 0.0 0.0 0.00 0.00 0.00 5 1010.3
20211127111241 16 45 0.0 0.0 0.00 0.00 0.00 6 1010.2
20211127110940 16 45 0.0 0.0 0.00 0.00 0.00 6 1010.3
20211127110639 16 45 0.0 0.0 0.00 0.00 0.00 6 1010.3
20211127110338 16 45 0.0 1.6 0.00 0.00 0.00 6 1010.4
20211127110036 16 45 0.0 0.0 0.00 0.00 0.00 5 1010.5